Location: �perlecques
(50.8057°N, 2.1521°E)
Time: 12:34:33
(UTC+00:00)

Vanguard 1 Rocket - Pass Details

Date: 04 August 2021
Orbit: 650 x 4226 km, 34.3° (Epoch: 20 September)

Event Time Altitude Azimuth Distance (km) Brightness Sun altitude
Rises 12:59:20 0° 264° (W) 7,024 12.2 54.1°
Reaches altitude 10° 13:05:34 10° 255° (WSW) 5,358 11.8 53.6°
Maximum altitude 13:16:23 27° 206° (SSW) 2,894 11.4 52.8°
Drops below altitude 10° 13:23:01 10° 151° (SSE) 3,188 10.6 52.2°
Sets 13:25:40 0° 138° (SE) 3,822 10.7 52.0°
